Location: Bruderhein
(53.8035°N, 112.9265°W)
Time: 08:53:27
(UTC+00:00)

TIGRISAT - Pass Details

Date: 03 April 2023
Orbit: 599 x 682 km, 97.7° (Epoch: 02 June)

Event Time Altitude Azimuth Distance (km) Brightness Sun altitude
Rises 12:01:41 0° 161° (SSE) 2,946 ? -9.1°
Reaches altitude 10° 12:03:51 10° 161° (SSE) 2,053 ? -8.8°
Maximum altitude 12:08:20 84° 75° (ENE) 674 ? -8.2°
Drops below altitude 10° 12:12:59 10° 347° (NNW) 2,117 ? -7.5°
Sets 12:15:15 0° 347° (NNW) 3,045 ? -7.2°
